NOAA 16 DEB, 41493

Orbit data source: Space-Track

NOAA 16 DEB, 41493 is space debris in SSO originally from a launch on Thu, 21 Sep 2000 UTC launched from the Air Force Western Test Range (AFWTR). Debris objects in space refer to the collection of defunct objects orbiting the Earth. Examples of debris include non-operational satellites, rocket bodies, and fragments generated from explosions, collisions, or faulty payload assembly.

Loading next visibility...
Identifier
41493, 2000-055LR
Orbit
SSO
Country
Flag of USUS
Related business
Manufacturer
Unknown
Mission
Spacecraft
Bus & Motor
Unknown
Mass
Unknown
Launch date (UTC)
2000-09-21 (25 years ago)
Launch vehicle
Unknown
Launch site
Air Force Western Test Range (AFWTR)
Object type
Payload
Rocket body
Debris
Shape & HBR
Unknown shape, 0.1 m
Radar Cross Section
Small (<0.1 m²)

Expand to show TLE details & history
Last TLE update: 22 hours ago

TLE from 22 hours ago
0 NOAA 16 DEB
1 41493U 00055LR  25307.65449323  .00010676  00000-0  28022-2 0  9990
2 41493  98.9003 102.1127 0024205  74.3429 286.0432 14.49198289500496
Epoch: 2025-11-03T15:42Z
TLE epoch observation values (Epoch: 2025-11-03T15:42:28.215Z)
Latitude
0.00007°
Longitude
-176.65764°
Altitude
726.5 km
Speed
7.494 km/s
True Right ascension
06h 48m 27s
True Declination
0° 00' 00"
Sunlit
Object was in partial shadow at epoch
Visualization orbit readout
Latitude
Unknown
Longitude
Unknown
Altitude
Unknown
Speed
Unknown
Apparent Right ascension
Unknown
Apparent Declination
Unknown
Sunlit
N/A
Visualization observer readout
Local Sidereal Time
10:04:49
Azimuth
Unknown
Elevation
Unknown
Doppler factor
Unknown
Orbital elements
Apogee altitude
742.591 km
Perigee altitude
708.203 km
Semi-major axis
7,103.534 km
Eccentricity
0.00242
Inclination
98.9003°
RAAN
102.1127°
Arg. of periapsis
74.3429°
True anomaly
285.77641°
Mean anomaly
286.0432°
Eccentric anomaly
285.90983°
Mean motion
3.6252 °/min
Orbital period
99.3 mins
BSTAR
0.0028022
Loading maneuver chart data...
Computing Atmospheric mass density...
Loading historical data...
Loading historical data...
Loading historical data...
Loading historical data...
Loading historical data...
Loading historical data...
Loading historical data...

Documentation

Showing up to 5 results
|